Weather History for Dutch Harbor, AK

Change the Weather History Date:

Tuesday, November 5, 2013

  Actual Average Record
Temperature  
Mean Temperature 40 °F -  
Max Temperature 44 °F 46 °F 65 °F (1986)
Min Temperature 35 °F 32 °F 25 °F (1985)
Degree Days  
Heating Degree Days 26    
Moisture  
Dew Point 31 °F    
Average Humidity 69    
Maximum Humidity 82    
Minimum Humidity 60    
Precipitation  
Precipitation 0.13 in - - ()
Sea Level Pressure  
Sea Level Pressure 30.15 in    
Wind  
Wind Speed 11 mph (SSE)    
Max Wind Speed 28 mph    
Max Gust Speed 41 mph    
Visibility 10 miles    
Events Rain    
Averages and records for this station are not official NWS values.
T = Trace of Precipitation, MM = Missing Value Source: NWS Daily Summary

Daily Weather History Graph

Daily Weather History Graph

Search for Another Location

Airport:

Trip Planner

Search our weather history database for the weather conditions in past years. The results will help you decide how hot, cold, wet, or windy it might be!

Date:

Astronomy

Nov. 05, 2013 Rise Set
Actual Time 9:15 AM AKST 6:23 PM AKST
Civil Twilight 8:37 AM AKST 7:01 PM AKST
Nautical Twilight 7:55 AM AKST 7:43 PM AKST
Astronomical Twilight 7:13 AM AKST 8:24 PM AKST
Moon 11:57 AM AKST (11/5) 8:23 PM AKST (11/5)
Length of Visible Light 10h 24m
Length of Day
9h 08m
Waxing Crescent, 7% of the Moon is Illuminated
Nov 5
Waxing Crescent
Nov 9
First Quarter
Nov 17
Full
Nov 25
Last Quarter
Dec 2
New

Hourly Weather History & Observations

Time (AKST) Temp. Windchill Dew Point Humidity Pressure Visibility Wind Dir Wind Speed Gust Speed Precip Events Conditions
12:08 AM 39.2 °F 31.6 °F 32.0 °F 75% 30.21 in 10.0 mi WNW 12.7 mph - 0.00 in Rain Light Rain
12:56 AM 41.0 °F 33.5 °F 32.0 °F 70% 30.25 in 10.0 mi WNW 13.8 mph 21.9 mph 0.00 in   Overcast
1:56 AM 41.0 °F 33.5 °F 30.9 °F 67% 30.26 in 10.0 mi NW 13.8 mph - N/A   Partly Cloudy
2:56 AM 39.9 °F 34.5 °F 32.0 °F 73% 30.27 in 10.0 mi West 8.1 mph - 0.00 in   Mostly Cloudy
3:56 AM 37.0 °F 32.4 °F 30.9 °F 79% 30.27 in 10.0 mi West 5.8 mph - N/A   Clear
4:56 AM 37.0 °F - 30.9 °F 79% 30.30 in 10.0 mi Calm Calm - N/A   Scattered Clouds
5:56 AM 37.0 °F - 28.9 °F 73% 30.29 in 10.0 mi Calm Calm - N/A   Partly Cloudy
6:56 AM 37.9 °F - 28.9 °F 70% 30.30 in 10.0 mi Calm Calm - 0.01 in   Clear
7:56 AM 37.0 °F - 30.0 °F 76% 30.31 in 10.0 mi Calm Calm - N/A   Clear
8:56 AM 35.1 °F - 28.9 °F 78% 30.30 in 10.0 mi Calm Calm - N/A   Clear
9:56 AM 36.0 °F - 28.0 °F 73% 30.32 in 10.0 mi Calm Calm - N/A   Scattered Clouds
10:56 AM 37.9 °F - 28.0 °F 68% 30.32 in 10.0 mi Calm Calm - N/A   Mostly Cloudy
11:56 AM 39.9 °F - 30.0 °F 68% 30.31 in 10.0 mi Calm Calm - N/A   Clear
12:56 PM 42.1 °F 36.6 °F 30.9 °F 65% 30.29 in 10.0 mi SSE 9.2 mph - N/A   Partly Cloudy
1:56 PM 42.1 °F 35.2 °F 30.0 °F 62% 30.23 in 10.0 mi SSE 12.7 mph - N/A   Mostly Cloudy
2:56 PM 42.1 °F 36.1 °F 30.0 °F 62% 30.18 in 10.0 mi SSE 10.4 mph 21.9 mph N/A   Mostly Cloudy
3:56 PM 42.1 °F 34.2 °F 30.0 °F 62% 30.18 in 10.0 mi South 16.1 mph 24.2 mph N/A   Mostly Cloudy
4:56 PM 42.1 °F 34.2 °F 30.0 °F 62% 30.14 in 10.0 mi SE 16.1 mph 28.8 mph 0.00 in   Overcast
5:56 PM 42.1 °F 34.2 °F 30.0 °F 62% 30.11 in 10.0 mi South 16.1 mph 20.7 mph N/A   Overcast
6:56 PM 42.1 °F 33.6 °F 30.9 °F 65% 30.08 in 10.0 mi SSE 18.4 mph 27.6 mph 0.00 in   Overcast
7:56 PM 43.0 °F 34.0 °F 30.0 °F 60% 30.02 in 10.0 mi SE 21.9 mph 28.8 mph N/A   Overcast
8:56 PM 43.0 °F 33.8 °F 32.0 °F 65% 29.96 in 10.0 mi SSE 23.0 mph 36.8 mph N/A   Overcast
9:35 PM 44.6 °F 36.4 °F 32.0 °F 61% 29.94 in 10.0 mi SSE 20.7 mph 35.7 mph N/A   Overcast
9:56 PM 44.1 °F 35.9 °F 32.0 °F 63% 29.93 in 10.0 mi SSE 19.6 mph 36.8 mph N/A   Mostly Cloudy
10:15 PM 44.6 °F 36.4 °F 33.8 °F 66% 29.88 in 10.0 mi SE 20.7 mph 29.9 mph N/A   Overcast
10:36 PM 42.8 °F 32.7 °F 35.6 °F 76% 29.86 in 8.0 mi SE 27.6 mph 35.7 mph 0.00 in Rain Light Rain
10:56 PM 42.1 °F 32.3 °F 36.0 °F 79% 29.87 in 7.0 mi SE 24.2 mph 32.2 mph 0.00 in Rain Light Rain
11:56 PM 43.0 °F 33.5 °F 37.9 °F 82% 29.81 in 6.0 mi SE 24.2 mph 41.4 mph 0.12 in Rain Light Rain